N159L KBGR-KLAS

Flight info

Callsign N159L
Flight time N/A
Altitude 34000
Route BGR5 BGR TALNO Q951 KATEK PEPLA KARIT Q848 SLLAP DUTYS VIRGN WYYTE Q92 KUTCH FROGS J56 GOULL SARAF EHK STEWW CHOWW4
Aircraft CL60/M-SBDE1E2E3FGHIJ1J4J5J7M3RWXYZ/LB1V1D1

Departure

Time 2026-04-24 12:00
Airport Bangor International Airport (KBGR)

Arrival

Time N/A
Airport Harry Reid International Airport (KLAS)
Time Latitude Longitude Altitude Speed Heading
2026-04-24 11:44 44.81159 -68.81736 155 ft 0 kts 316°
2026-04-24 11:52 44.81159 -68.81737 155 ft 0 kts 316°
2026-04-24 11:52 44.81159 -68.81736 155 ft 0 kts 316°
2026-04-24 11:52 44.81159 -68.81737 155 ft 0 kts 316°
2026-04-24 11:54 44.81157 -68.81782 156 ft 11 kts 227°
2026-04-24 11:55 44.81057 -68.81905 158 ft 25 kts 224°
2026-04-24 11:55 44.80911 -68.82103 161 ft 31 kts 224°
2026-04-24 11:55 44.80799 -68.82254 161 ft 6 kts 166°
2026-04-24 11:55 44.80700 -68.82147 157 ft 30 kts 133°
2026-04-24 11:56 44.80529 -68.81897 152 ft 37 kts 134°
2026-04-24 11:56 44.80332 -68.81614 150 ft 42 kts 134°
2026-04-24 11:56 44.80125 -68.81319 151 ft 41 kts 135°
2026-04-24 11:56 44.79955 -68.81072 153 ft 26 kts 133°
2026-04-24 11:57 44.79852 -68.81002 151 ft 13 kts 206°
2026-04-24 11:57 44.79758 -68.81123 153 ft 9 kts 224°
2026-04-24 11:57 44.79752 -68.81132 153 ft 0 kts 225°
2026-04-24 11:59 44.79741 -68.81145 153 ft 10 kts 224°
2026-04-24 11:59 44.79707 -68.81297 155 ft 19 kts 292°
2026-04-24 11:59 44.79922 -68.81625 155 ft 85 kts 313°
2026-04-24 11:59 44.80515 -68.82481 166 ft 152 kts 314°
2026-04-24 12:00 44.81262 -68.83594 780 ft 160 kts 314°
2026-04-24 12:00 44.81991 -68.84673 1690 ft 151 kts 320°
2026-04-24 12:00 44.82768 -68.85674 2369 ft 161 kts 321°
2026-04-24 12:00 44.83705 -68.86888 2504 ft 202 kts 316°
2026-04-24 12:01 44.84334 -68.88770 2979 ft 233 kts 282°
2026-04-24 12:01 44.84475 -68.91138 3660 ft 253 kts 278°
2026-04-24 12:01 44.84586 -68.93591 4674 ft 257 kts 278°
2026-04-24 12:01 44.84704 -68.96103 5756 ft 259 kts 277°
2026-04-24 12:02 44.84821 -68.98591 6838 ft 260 kts 277°
2026-04-24 12:02 44.84940 -69.01116 7919 ft 261 kts 277°
2026-04-24 12:02 44.85062 -69.03657 8910 ft 264 kts 277°
2026-04-24 12:02 44.85184 -69.06218 9877 ft 266 kts 277°
2026-04-24 12:03 44.85310 -69.08823 10677 ft 274 kts 278°
2026-04-24 12:03 44.85445 -69.11558 11232 ft 289 kts 278°
2026-04-24 12:03 44.85584 -69.14436 11934 ft 298 kts 278°
2026-04-24 12:03 44.85724 -69.17329 12662 ft 303 kts 278°
2026-04-24 12:04 44.85869 -69.20345 13407 ft 308 kts 279°
2026-04-24 12:04 44.86013 -69.23359 14121 ft 313 kts 279°
2026-04-24 12:04 44.86158 -69.26397 14790 ft 317 kts 279°
2026-04-24 12:04 44.86305 -69.29498 15463 ft 321 kts 280°
2026-04-24 12:05 44.86456 -69.32668 16074 ft 326 kts 280°
2026-04-24 12:05 44.86605 -69.35838 16682 ft 330 kts 280°
2026-04-24 12:05 44.86756 -69.39068 17283 ft 333 kts 281°
2026-04-24 12:05 44.86910 -69.42343 17836 ft 337 kts 281°
2026-04-24 12:06 44.87062 -69.45633 18427 ft 340 kts 281°
2026-04-24 12:06 44.87217 -69.48970 18936 ft 344 kts 281°
2026-04-24 12:06 44.87371 -69.52323 19411 ft 347 kts 281°
2026-04-24 12:06 44.87524 -69.55695 19918 ft 349 kts 282°
2026-04-24 12:07 44.87679 -69.59105 20349 ft 352 kts 282°
2026-04-24 12:07 44.87835 -69.62573 20816 ft 355 kts 282°
2026-04-24 12:07 44.87993 -69.66072 21296 ft 361 kts 282°
2026-04-24 12:07 44.88150 -69.69576 21844 ft 364 kts 282°
2026-04-24 12:08 44.88308 -69.73163 22386 ft 367 kts 283°
2026-04-24 12:08 44.88465 -69.76741 22864 ft 370 kts 283°
2026-04-24 12:08 44.88624 -69.80375 23355 ft 373 kts 284°
2026-04-24 12:08 44.88780 -69.83985 23842 ft 376 kts 284°
2026-04-24 12:09 44.88939 -69.87691 24328 ft 378 kts 284°
2026-04-24 12:09 44.89098 -69.91383 24728 ft 383 kts 284°
2026-04-24 12:09 44.89258 -69.95153 25204 ft 386 kts 284°
2026-04-24 12:09 44.89415 -69.98904 25730 ft 386 kts 285°
2026-04-24 12:10 44.89573 -70.02695 26130 ft 391 kts 284°
2026-04-24 12:10 44.89733 -70.06534 26474 ft 396 kts 285°
2026-04-24 12:10 44.89893 -70.10416 26932 ft 398 kts 285°
2026-04-24 12:11 44.90206 -70.18190 27733 ft 402 kts 285°
2026-04-24 12:11 44.90361 -70.22113 28171 ft 402 kts 285°
2026-04-24 12:11 44.90519 -70.26060 28481 ft 406 kts 285°
2026-04-24 12:11 44.90676 -70.30061 28819 ft 409 kts 284°
2026-04-24 12:12 44.90829 -70.34029 29223 ft 409 kts 285°
2026-04-24 12:12 44.91034 -70.39384 29705 ft 410 kts 285°
2026-04-24 12:12 44.91135 -70.42020 29867 ft 413 kts 285°
2026-04-24 12:12 44.91290 -70.46092 30169 ft 415 kts 284°
2026-04-24 12:13 44.91441 -70.50164 30571 ft 414 kts 284°
2026-04-24 12:13 44.91589 -70.54228 31026 ft 412 kts 284°
2026-04-24 12:13 44.91734 -70.58227 31384 ft 411 kts 284°
2026-04-24 12:13 44.91880 -70.62258 31761 ft 410 kts 284°
2026-04-24 12:14 44.92022 -70.66235 32156 ft 408 kts 283°
2026-04-24 12:14 44.92165 -70.70264 32429 ft 410 kts 283°
2026-04-24 12:14 44.92305 -70.74237 32782 ft 408 kts 283°
2026-04-24 12:14 44.92442 -70.78194 33151 ft 406 kts 283°
2026-04-24 12:15 44.92580 -70.82172 33450 ft 406 kts 283°
2026-04-24 12:15 44.92717 -70.86166 33731 ft 406 kts 283°
2026-04-24 12:15 44.92853 -70.90149 33852 ft 410 kts 283°
2026-04-24 12:16 44.93133 -70.98286 33884 ft 423 kts 282°
2026-04-24 12:16 44.93412 -71.06668 33877 ft 435 kts 282°
2026-04-24 12:17 44.93691 -71.15297 33870 ft 446 kts 282°
2026-04-24 12:17 44.93966 -71.24089 33863 ft 456 kts 282°